Regional Weather Roundup
Issued by NWS

Home | Current Version | Previous Version | Graphics & Text | Print | Product List | Glossary On
Versions: 1 2 3 4 5 6 7 8 9 10 11 12 13 14 15 16 17 18 19 20 21 22 23 24 25 26 27 28 29 30 31 32 33 34 35 36 37 38 39 40 41 42 43 44 45 46 47 48 49 50
000
ASUS43 KLMK 240510
RWRKY
KENTUCKY REGIONAL WEATHER ROUNDUP
NATIONAL WEATHER SERVICE LOUISVILLE KY
100 AM EDT SUN MAY 24 2015

NOTE "FAIR" INDICATES FEW OR NO CLOUDS BELOW 12,000 FEET
WITH NO SIGNIFICANT WEATHER AND/OR OBSTRUCTIONS TO VISIBILITY.

KYZ001>023-026-027-061>063-070>075-240600-
WESTERN AND SOUTH CENTRAL KENTUCKY

CITY           SKY/WX    TMP DP  RH WIND       PRES   REMARKS
PADUCAH        CLEAR     64  56  75 SE6       30.16F
HENDERSON      PTCLDY    64  52  63 CALM      30.18F
OWENSBORO      MOCLDY    66  53  63 SE6       30.21F
HOPKINSVILLE   PTCLDY    66  56  68 SE5       30.20F
BOWLING GREEN  MOCLDY    63  55  75 CALM      30.23F
GLASGOW        MOCLDY    64  55  70 CALM      30.24F
$$

KYZ024-025-028>034-038-045-046-053-240600-
NORTH CENTRAL KENTUCKY

CITY           SKY/WX    TMP DP  RH WIND       PRES   REMARKS
LOUISVILLE/SDF MOCLDY    69  50  50 CALM      30.24S
LOUISVILLE/LOU PTCLDY    69  49  48 E3        30.25S
FORT KNOX      MOCLDY    59  52  77 E1        30.23S
$$

KYZ035>037-039>044-047>052-055>060-089>105-240600-
NORTHEAST KENTUCKY

CITY           SKY/WX    TMP DP  RH WIND       PRES   REMARKS
LEXINGTON      PTCLDY    66  49  54 SE9       30.28F
COVINGTON      PTCLDY    63  46  54 SE5       30.28S
FRANKFORT      PTCLDY    59  50  72 CALM      30.27R
$$

KYZ054-064>069-076>088-106>120-240600-
SOUTHEAST KENTUCKY

CITY           SKY/WX    TMP DP  RH WIND       PRES   REMARKS
JACKSON        PTCLDY    64  47  53 CALM      30.31F
LONDON         CLEAR     60  51  72 CALM      30.30F
SOMERSET       CLEAR     57  52  82 CALM      30.30S
MIDDLESBORO    PTCLDY    57  54  91 CALM      30.32F
MONTICELLO     CLEAR     58  55  89 CALM      30.32R
$$



USA.gov is the U.S. government's official web portal to all federal, state and local government web resources and services.